Regional Weather Roundup
Issued by NWS

Home | Current Version | Previous Version | Text Only | Print | Product List | Glossary On
Versions: 1 2 3 4 5 6 7 8 9 10 11 12 13 14 15 16 17 18 19 20 21 22 23 24 25 26 27 28 29 30 31 32 33 34 35 36 37 38 39 40 41 42 43 44 45 46 47 48 49 50
000
ASUS43 KOAX 102310
RWRNE

WEATHER ROUNDUP FOR NEBRASKA
NATIONAL WEATHER SERVICE OMAHA NE
500 PM CST SAT DEC 10 2016

NOTES: SATELLITE DATA IS BEING USED TO AUGMENT CLOUD COVER ABOVE
       12000 FEET.
       "FAIR" INDICATES FEW OR NO CLOUDS BELOW 12,000 FEET WITH NO
       SIGNIFICANT WEATHER AND/OR OBSTRUCTIONS TO VISIBILITY.

  * THESE STATIONS DO NOT REPORT WEATHER SUCH AS RAIN...SNOW OR FOG.

NEZ001>004-019>022-054>056-110000-
NEBRASKA PANHANDLE

CITY           SKY/WX    TMP DP  RH WIND       PRES   REMARKS
SCOTTSBLUFF    CLOUDY    29  20  69 SE5       29.69F WCI  24
ALLIANCE       CLOUDY    30  22  72 SE9       29.68F WCI  22
CHADRON        CLOUDY    13   7  77 N6        29.73F WCI   4
KIMBALL        CLOUDY    39  33  77 CALM      29.71F
SIDNEY         CLOUDY    31  23  72 SW8       29.71F WCI  23
$$

NEZ057>060-069>072-079>082-110000-
SOUTHWEST NEBRASKA

CITY           SKY/WX    TMP DP  RH WIND       PRES   REMARKS
NORTH PLATTE   CLOUDY    30  22  72 SE12      29.80F WCI  20
IMPERIAL       CLOUDY    28  23  81 SE8       29.79F WCI  20
LEXINGTON      CLOUDY    32  22  68 S9        29.86F WCI  24
MCCOOK         CLOUDY    33  25  72 SE10      29.83F WCI  25
OGALLALA       CLOUDY    31  24  77 S6        29.77F WCI  25
$$

NEZ005>010-023>029-035>040-094-110000-
NORTH CENTRAL NEBRASKA

CITY           SKY/WX    TMP DP  RH WIND       PRES   REMARKS
VALENTINE      CLOUDY    16  12  84 NE7       29.81R WCI   6
AINSWORTH      CLOUDY    27  22  82 SE7       29.81F WCI  19
BROKEN BOW     CLOUDY    29  21  72 S16G24    29.84F WCI  17
O`NEILL        CLOUDY    28  21  73 SE13      29.87F WCI  18
ORD            CLOUDY    31  18  58 S13       29.87F WCI  21
THEDFORD       CLOUDY    30  23  75 S13       29.78R WCI  20
$$

NEZ041-046>049-061>064-073>077-083>087-110000-
SOUTH CENTRAL NEBRASKA

CITY           SKY/WX    TMP DP  RH WIND       PRES   REMARKS
GRAND ISLAND   CLOUDY    30  21  69 SE8       29.93F WCI  22
AURORA         CLOUDY    32  19  58 S14       29.94F WCI  22
HASTINGS       CLOUDY    32  20  61 S10       29.92F WCI  24
HEBRON         CLOUDY    35  22  57 SE10      29.97F WCI  28
HOLDREGE       CLOUDY    33  23  67 S14       29.86F WCI  24
KEARNEY *      CLOUDY    32  19  59 S12       29.89F WCI  23
YORK           CLOUDY    32  18  55 S13       29.96F WCI  22
$$

NEZ011>018-030>034-042>045-110000-
NORTHEAST NEBRASKA

CITY           SKY/WX    TMP DP  RH WIND       PRES   REMARKS
NORFOLK        CLOUDY    26  18  71 SE16      29.96F WCI  14
ALBION         CLOUDY    29  19  66 SE13      29.92F WCI  19
BLAIR          CLOUDY    29  19  64 SE16      30.02F WCI  18
FREMONT        CLOUDY    29  19  64 SE14      30.02F WCI  19
TEKAMAH        CLOUDY    27  19  72 E13       30.06F WCI  16
WAYNE          CLOUDY    25  20  83 SE17      29.99F WCI  11
$$

NEZ050>053-065>068-078-088>093-110000-
SOUTHEAST NEBRASKA

CITY           SKY/WX    TMP DP  RH WIND       PRES   REMARKS
LINCOLN        CLOUDY    33  16  49 SE12      30.03F WCI  24
OMAHA EPPLEY   CLOUDY    31  15  52 SE16      30.05F WCI  20
BEATRICE       CLOUDY    34  20  56 SE15G21   30.01F WCI  25
FALLS CITY     CLOUDY    33  19  56 SE9       30.08F WCI  25
NEBRASKA CITY  CLOUDY    32  13  45 SE13      30.07F WCI  22
PLATTSMOUTH    CLOUDY    32  12  43 SE15      30.05F WCI  22
$$

NEZ044-045-051>053-067-110000-
OMAHA AREA

CITY           SKY/WX    TMP DP  RH WIND       PRES   REMARKS
OMAHA EPPLEY   CLOUDY    31  15  52 SE16      30.05F WCI  20
BLAIR          CLOUDY    29  19  64 SE16      30.02F WCI  18
FREMONT        CLOUDY    29  19  64 SE14      30.02F WCI  19
MILLARD        CLOUDY    32  18  55 SE15      30.04F WCI  22
OFFUTT AFB     CLOUDY    31  16  53 SE17      30.05F WCI  20
PLATTSMOUTH    CLOUDY    32  12  43 SE15      30.05F WCI  22
WAHOO          CLOUDY    31  17  56 SE18      30.02F WCI  19
$$



USA.gov is the U.S. government's official web portal to all federal, state and local government web resources and services.